Location: Podia
(1.5569°N, 32.3469°E)
Time: 17:43:04
(UTC+00:00)

CZ-2C R/B - Pass Details

Date: 01 June 2020
Orbit: 785 x 870 km, 98.3° (Epoch: 04 July)

Event Time Altitude Azimuth Distance (km) Brightness Sun altitude
Rises 16:27:34 0° 45° (NE) 3,434 5.6 -8.4°
Reaches altitude 10° 16:30:57 10° 66° (ENE) 2,491 4.7 -9.2°
Maximum altitude 16:34:09 16° 102° (ESE) 2,099 4.1 -9.9°
Enters shadow 16:37:00 11° 135° (SE) 2,400 4.5 -10.6°
